Regional Weather Roundup
Issued by NWS

Home | Current Version | Previous Version | Text Only | Print | Product List | Glossary Off
Versions: 1 2 3 4 5 6 7 8 9 10 11 12 13 14 15 16 17 18 19 20 21 22 23 24 25 26 27 28 29 30 31 32 33 34 35 36 37 38 39 40 41 42 43 44 45 46 47 48 49 50

000
ASUS43 KLSX 110207
RWRMO

WEATHER SUMMARY FOR MISSOURI
NATIONAL WEATHER SERVICE SPRINGFIELD MO
900 PM CDT THU JUL 10 2014

NOTE: "FAIR" INDICATES FEW OR NO CLOUDS BELOW 12,000 FEET WITH NO
       SIGNIFICANT WEATHER AND/OR OBSTRUCTIONS TO VISIBILITY.
       CURRENT SKY AND/OR WEATHER CONDITIONS ARE NOT AVAILABLE FOR
       CHILLICOTHE AND FARMINGTON.

MOZ001>031-035>038-043-044-053-054-110300-
...NORTHERN AND WESTERN MISSOURI...

CITY           SKY/WX    TMP DP  RH WIND       PRES   REMARKS
KANSAS CTY INT PTCLDY    77  65  66 SE10      30.04R
KANSAS C DTWN  CLEAR     80  66  62 SE9       30.03R
LEE`S SUMMIT   CLEAR     76  66  71 SE5       30.05S
ST JOSEPH      CLEAR     77  66  68 SE10      30.02R
CHILLICOTHE      N/A     75  61  61 SE3       30.07S
KIRKSVILLE     CLEAR     70  61  73 SE6       30.10S

$$
MOZ066>068-077>081-088>096-101>105-110300-
...SOUTHWEST MISSOURI...

CITY           SKY/WX    TMP DP  RH WIND       PRES   REMARKS
SPRINGFIELD    CLEAR     71  64  78 SE8       30.08R
JOPLIN         CLEAR     72  66  81 S6        30.05R

$$
MOZ032>034-039>042-045>050-055>058-069>072-110300-
...CENTRAL MISSOURI...

CITY           SKY/WX    TMP DP  RH WIND       PRES   REMARKS
COLUMBIA       CLEAR     73  62  68 E6        30.09S
JEFFERSON CITY CLEAR     73  63  70 E5        30.08R
ROLLA          CLEAR     70  62  76 E6        30.10R
SEDALIA        CLEAR     74  67  78 E5        30.08S
WHITEMAN AFB   CLEAR     73  61  66 SE5       30.05S
OSAGE BEACH    MOCLDY    73  64  73 S6        30.09R

$$
MOZ051-052-059>065-110300-
...EAST CENTRAL MISSOURI...

CITY           SKY/WX    TMP DP  RH WIND       PRES   REMARKS
ST LOUIS INTL  PTCLDY    75  56  51 E7        30.11R
SPIRIT OF STL  PTCLDY    69  62  78 CALM      30.09R
ST CHARLES     CLEAR     70  60  70 NE6       30.10R

$$
MOZ072>076-082>087-097>100-106>115-110300-
...SOUTH CENTRAL AND SOUTHEAST MISSOURI...

CITY           SKY/WX    TMP DP  RH WIND       PRES   REMARKS
CAPE GIRARDEAU MOCLDY    76  65  68 NE6       30.10R
FARMINGTON     CLEAR     72  63  73 CALM      30.14S
POPLAR BLUFF   CLOUDY    75  68  78 NE3       30.08R
WEST PLAINS    PTCLDY    72  66  81 E3        30.11S

$$


USA.gov is the U.S. government's official web portal to all federal, state and local government web resources and services.